Location: Unspecified
(29.9680°N, 0.0000°E)
Time: 06:30:51
(UTC+00:00)

A-11 Canister half - Pass Details

Date: 21 June 2019
Orbit: 1527 x 1682 km, 47.3° (Epoch: 13 October)

Event Time Altitude Azimuth Distance (km) Brightness Sun altitude
Rises 13:33:29 0° 294° (WNW) 4,696 11.8 68.5°
Reaches altitude 10° 13:37:25 10° 280° (W) 3,727 11.5 67.7°
Maximum altitude 13:44:02 22° 235° (SW) 2,936 11.2 66.3°
Drops below altitude 10° 13:50:47 10° 189° (S) 3,797 11.3 64.9°
Sets 13:54:54 0° 175° (S) 4,807 11.6 64.0°
